• In Österreich
  • Länderverzeichnis
  • Für 7 Tage
  • Wassertemperatur
  • Satellitenkarten
  • Wetterkarte
  • News
  • Widgets
  • user-avatar
    Anmelden

    Stündliche Wetter Tuxtepec

    Heute, 22 Juni, Freitag

    Zeit Temperatur Niederschläge Wind Luftdruck Luftfeuchtigkeit
    00:00 +27°C° 1,1 mm 2 m/S 755 mmHg 84%
    01:00 +27°C° 0,5 mm 1 m/S 755 mmHg 84%
    02:00 +27°C° 0,5 mm 1 m/S 755 mmHg 85%
    03:00 +27°C° 0,5 mm 1 m/S 755 mmHg 85%
    04:00 +27°C° 0 mm 1 m/S 755 mmHg 85%
    05:00 +26°C° 0 mm 1 m/S 755 mmHg 85%
    06:00 +26°C° 0 mm 1 m/S 755 mmHg 85%
    07:00 +28°C° 0 mm 1 m/S 755 mmHg 79%
    08:00 +30°C° 0 mm 1 m/S 755 mmHg 73%
    09:00 +32°C° 0 mm 1 m/S 755 mmHg 68%
    10:00 +33°C° 0,1 mm 1 m/S 755 mmHg 63%
    11:00 +34°C° 0,1 mm 1 m/S 755 mmHg 59%
    12:00 +37°C° 0,1 mm 2 m/S 755 mmHg 55%
    13:00 +37°C° 0,2 mm 2 m/S 754 mmHg 54%
    14:00 +38°C° 0,2 mm 2 m/S 754 mmHg 53%
    15:00 +38°C° 0,2 mm 2 m/S 753 mmHg 51%
    16:00 +36°C° 0,4 mm 1 m/S 753 mmHg 56%
    17:00 +35°C° 0,4 mm 1 m/S 753 mmHg 61%
    18:00 +34°C° 0,4 mm 1 m/S 753 mmHg 65%
    19:00 +32°C° 1,6 mm 1 m/S 754 mmHg 72%
    20:00 +31°C° 1,6 mm 2 m/S 755 mmHg 78%
    21:00 +29°C° 1,6 mm 2 m/S 755 mmHg 84%
    22:00 +28°C° 0,8 mm 2 m/S 756 mmHg 85%
    23:00 +28°C° 0,8 mm 1 m/S 756 mmHg 85%

    Morgen, 23 Juni, Samstag

    Zeit Temperatur Niederschläge Wind Luftdruck Luftfeuchtigkeit
    00:00 +28°C° 0,8 mm 1 m/S 756 mmHg 86%
    01:00 +27°C° 0 mm 1 m/S 756 mmHg 85%
    02:00 +27°C° 0 mm 1 m/S 755 mmHg 85%
    03:00 +27°C° 0 mm 1 m/S 755 mmHg 85%
    04:00 +27°C° 0,5 mm 1 m/S 755 mmHg 86%
    05:00 +26°C° 0,5 mm 1 m/S 755 mmHg 86%
    06:00 +26°C° 0,5 mm 1 m/S 755 mmHg 87%
    07:00 +28°C° 0 mm 1 m/S 756 mmHg 81%
    08:00 +30°C° 0 mm 1 m/S 756 mmHg 75%
    09:00 +30°C° 0 mm 0 m/S 756 mmHg 69%
    10:00 +33°C° 0 mm 1 m/S 756 mmHg 64%
    11:00 +34°C° 0 mm 1 m/S 755 mmHg 60%
    12:00 +37°C° 0 mm 2 m/S 755 mmHg 55%
    13:00 +37°C° 0,2 mm 2 m/S 754 mmHg 54%
    14:00 +37°C° 0,2 mm 2 m/S 754 mmHg 52%
    15:00 +38°C° 0,2 mm 2 m/S 753 mmHg 51%
    16:00 +36°C° 0,5 mm 1 m/S 753 mmHg 56%
    17:00 +35°C° 0,5 mm 1 m/S 753 mmHg 61%
    18:00 +34°C° 0,5 mm 1 m/S 753 mmHg 66%
    19:00 +32°C° 0,9 mm 1 m/S 754 mmHg 70%
    20:00 +31°C° 0,9 mm 1 m/S 754 mmHg 74%
    21:00 +29°C° 0,9 mm 1 m/S 755 mmHg 79%
    22:00 +29°C° 0,6 mm 1 m/S 755 mmHg 80%
    23:00 +29°C° 0,6 mm 1 m/S 755 mmHg 82%

    übermorgen, 24 Juni, Sonntag

    Zeit Temperatur Niederschläge Wind Luftdruck Luftfeuchtigkeit
    00:00 +28°C° 0,6 mm 1 m/S 756 mmHg 84%
    01:00 +28°C° 0,1 mm 1 m/S 755 mmHg 84%
    02:00 +28°C° 0,1 mm 1 m/S 755 mmHg 85%
    03:00 +27°C° 0,1 mm 1 m/S 754 mmHg 85%
    04:00 +27°C° 0,1 mm 1 m/S 754 mmHg 86%
    05:00 +27°C° 0,1 mm 1 m/S 754 mmHg 86%
    06:00 +26°C° 0,1 mm 1 m/S 754 mmHg 87%
    07:00 +28°C° 0 mm 1 m/S 755 mmHg 81%
    08:00 +30°C° 0 mm 1 m/S 755 mmHg 75%
    09:00 +32°C° 0 mm 1 m/S 755 mmHg 69%
    10:00 +33°C° 0,1 mm 1 m/S 755 mmHg 65%
    11:00 +34°C° 0,1 mm 1 m/S 755 mmHg 61%
    12:00 +37°C° 0,1 mm 2 m/S 754 mmHg 56%
    13:00 +37°C° 0,2 mm 2 m/S 754 mmHg 55%
    14:00 +37°C° 0,2 mm 2 m/S 753 mmHg 55%
    15:00 +38°C° 0,2 mm 2 m/S 753 mmHg 54%
    16:00 +37°C° 1,1 mm 2 m/S 753 mmHg 59%
    17:00 +35°C° 1,1 mm 1 m/S 753 mmHg 65%
    18:00 +33°C° 1,1 mm 1 m/S 753 mmHg 70%
    19:00 +32°C° 1,9 mm 1 m/S 754 mmHg 75%
    20:00 +30°C° 1,9 mm 1 m/S 755 mmHg 80%
    21:00 +29°C° 1,9 mm 1 m/S 756 mmHg 85%
    22:00 +28°C° 1,7 mm 1 m/S 756 mmHg 86%
    23:00 +28°C° 1,7 mm 1 m/S 756 mmHg 87%

    25 Juni, Montag

    Zeit Temperatur Niederschläge Wind Luftdruck Luftfeuchtigkeit
    00:00 +28°C° 1,7 mm 1 m/S 756 mmHg 88%
    01:00 +28°C° 0,2 mm 1 m/S 756 mmHg 88%
    02:00 +27°C° 0,2 mm 1 m/S 756 mmHg 88%
    03:00 +27°C° 0,2 mm 1 m/S 755 mmHg 88%
    04:00 +27°C° 0,2 mm 1 m/S 755 mmHg 87%
    05:00 +27°C° 0,2 mm 1 m/S 756 mmHg 87%
    06:00 +27°C° 0,2 mm 1 m/S 756 mmHg 87%
    07:00 +28°C° 0 mm 1 m/S 756 mmHg 82%
    08:00 +29°C° 0 mm 1 m/S 757 mmHg 78%
    09:00 +31°C° 0 mm 1 m/S 757 mmHg 73%
    10:00 +32°C° 0 mm 1 m/S 757 mmHg 69%
    11:00 +33°C° 0 mm 1 m/S 756 mmHg 65%
    12:00 +34°C° 0 mm 1 m/S 756 mmHg 60%
    13:00 +34°C° 0,1 mm 1 m/S 756 mmHg 59%
    14:00 +35°C° 0,1 mm 1 m/S 755 mmHg 58%
    15:00 +36°C° 0,1 mm 2 m/S 754 mmHg 57%
    16:00 +35°C° 0,1 mm 2 m/S 754 mmHg 61%
    17:00 +33°C° 0,1 mm 1 m/S 755 mmHg 65%
    18:00 +33°C° 0,1 mm 1 m/S 755 mmHg 69%
    19:00 +31°C° 0,3 mm 1 m/S 756 mmHg 74%
    20:00 +30°C° 0,3 mm 1 m/S 756 mmHg 79%
    21:00 +28°C° 0,3 mm 1 m/S 757 mmHg 84%
    22:00 +28°C° 0,4 mm 1 m/S 757 mmHg 85%
    23:00 +28°C° 0,4 mm 1 m/S 757 mmHg 86%

    26 Juni, Dienstag

    Zeit Temperatur Niederschläge Wind Luftdruck Luftfeuchtigkeit
    00:00 +27°C° 0,4 mm 1 m/S 758 mmHg 87%
    01:00 +27°C° 0,5 mm 1 m/S 757 mmHg 87%
    02:00 +27°C° 0,5 mm 1 m/S 757 mmHg 86%
    03:00 +26°C° 0,5 mm 1 m/S 757 mmHg 86%
    04:00 +26°C° 0,2 mm 1 m/S 757 mmHg 85%
    05:00 +26°C° 0,2 mm 1 m/S 757 mmHg 85%
    06:00 +26°C° 0,2 mm 1 m/S 757 mmHg 84%
    07:00 +28°C° 0 mm 1 m/S 757 mmHg 79%
    08:00 +29°C° 0 mm 2 m/S 758 mmHg 74%
    09:00 +31°C° 0 mm 2 m/S 758 mmHg 69%
    10:00 +32°C° 0 mm 2 m/S 757 mmHg 64%
    11:00 +34°C° 0 mm 2 m/S 757 mmHg 60%
    12:00 +35°C° 0 mm 2 m/S 757 mmHg 55%
    13:00 +36°C° 0,2 mm 2 m/S 756 mmHg 56%
    14:00 +36°C° 0,2 mm 2 m/S 756 mmHg 56%
    15:00 +36°C° 0,2 mm 2 m/S 755 mmHg 57%
    16:00 +35°C° 0,8 mm 2 m/S 755 mmHg 62%
    17:00 +34°C° 0,8 mm 2 m/S 755 mmHg 67%
    18:00 +32°C° 0,8 mm 2 m/S 756 mmHg 72%
    19:00 +30°C° 0,8 mm 2 m/S 756 mmHg 77%
    20:00 +29°C° 0,8 mm 1 m/S 757 mmHg 82%
    21:00 +27°C° 0,8 mm 1 m/S 758 mmHg 87%
    22:00 +27°C° 0,1 mm 1 m/S 758 mmHg 88%
    23:00 +27°C° 0,1 mm 1 m/S 758 mmHg 89%

    27 Juni, Mittwoch

    Zeit Temperatur Niederschläge Wind Luftdruck Luftfeuchtigkeit
    00:00 +26°C° 0,1 mm 1 m/S 758 mmHg 89%
    01:00 +26°C° 0,2 mm 1 m/S 758 mmHg 88%
    02:00 +26°C° 0,2 mm 1 m/S 757 mmHg 88%
    03:00 +25°C° 0,2 mm 1 m/S 757 mmHg 87%
    04:00 +25°C° 0 mm 1 m/S 757 mmHg 86%
    05:00 +25°C° 0 mm 1 m/S 757 mmHg 85%
    06:00 +25°C° 0 mm 1 m/S 757 mmHg 84%
    07:00 +27°C° 0 mm 1 m/S 757 mmHg 77%
    08:00 +29°C° 0 mm 1 m/S 757 mmHg 70%
    09:00 +31°C° 0 mm 1 m/S 757 mmHg 63%
    10:00 +32°C° 0 mm 1 m/S 757 mmHg 59%
    11:00 +34°C° 0 mm 2 m/S 757 mmHg 56%
    12:00 +35°C° 0 mm 2 m/S 756 mmHg 52%
    13:00 +35°C° 0,3 mm 2 m/S 756 mmHg 54%
    14:00 +36°C° 0,3 mm 2 m/S 755 mmHg 55%
    15:00 +36°C° 0,3 mm 2 m/S 755 mmHg 57%
    16:00 +34°C° 0,6 mm 2 m/S 755 mmHg 63%
    17:00 +32°C° 0,6 mm 2 m/S 755 mmHg 69%
    18:00 +31°C° 0,6 mm 2 m/S 755 mmHg 75%
    19:00 +30°C° 0,4 mm 2 m/S 756 mmHg 79%
    20:00 +28°C° 0,4 mm 1 m/S 757 mmHg 84%
    21:00 +27°C° 0,4 mm 1 m/S 757 mmHg 88%
    22:00 +27°C° 0,2 mm 1 m/S 758 mmHg 88%
    23:00 +26°C° 0,2 mm 1 m/S 758 mmHg 88%
    Mehr zeigen